STARLINK-37734, 69305

Orbit data source: Space-Track

STARLINK-37734, 69305 is a payload satellite owned by SpaceX/Seattle (US) in SSO that was launched on Sat, 30 May 2026 UTC via an FALCON 9 launch vehicle from the Air Force Western Test Range (AFWTR). Payload-class satellites include a variety of spacecraft equipped with specific instruments for various scientific and technological missions. These include communications satellites like Starlink; space stations such as the ISS; scientific satellites like the Hubble; Earth observation satellites from companies like Planet Labs, Umbra, and HawkEye 360; GPS; miniature CubeSats for education and research; and military/defense satellites.

Loading next visibility...
Identifier
69305, 2026-119K
Orbit
SSO
Country
Flag of USUS
Related business
Manufacturer
SpaceX/Seattle
Mission
Operational spacecraft
Bus & Motor
STARLINK V2MO, Unknown motor
Mass
575 kg wet, ~530 kg dry
Launch date (UTC)
2026-05-30 (2 months ago)
Launch vehicle
FALCON 9
Launch site
Air Force Western Test Range (AFWTR)
Object type
Payload
Rocket body
Debris
Shape & HBR
Unknown shape, 17.7 m
Radar Cross Section
Large (>1 m²)

Expand to show TLE details & history
Last TLE update: 16 hours ago

TLE from 16 hours ago
0 STARLINK-37734
1 69305U 26119K   26202.03554079  .00012976  00000-0  40351-3 0  9998
2 69305  97.2867 227.6465 0001158  64.4480 295.6883 15.33450315  9243
Epoch: 2026-07-21T00:51Z
TLE epoch observation values (Epoch: 2026-07-21T00:51:10.724Z)
Latitude
0.00005°
Longitude
-83.9592°
Altitude
468.296 km
Speed
7.632 km/s
True Right ascension
15h 10m 35s
True Declination
0° 00' 00"
Sunlit
Object was in daylight at epoch
Visualization orbit readout
Latitude
Unknown
Longitude
Unknown
Altitude
Unknown
Speed
Unknown
Apparent Right ascension
Unknown
Apparent Declination
Unknown
Sunlit
N/A
Visualization observer readout
Local Sidereal Time
06:13:52
Azimuth
Unknown
Elevation
Unknown
Doppler factor
Unknown
Orbital elements
Apogee altitude
463.262 km
Perigee altitude
461.678 km
Semi-major axis
6,840.607 km
Eccentricity
0.00012
Inclination
97.2867°
RAAN
227.6465°
Arg. of periapsis
64.448°
True anomaly
295.67634°
Mean anomaly
295.6883°
Eccentric anomaly
295.68232°
Mean motion
3.8362 °/min
Orbital period
93.84 mins
BSTAR
0.00040351
Loading maneuver chart data...
Computing Atmospheric mass density...
Loading historical data...
Loading historical data...
Loading historical data...
Loading historical data...
Loading historical data...
Loading historical data...
Loading historical data...

Documentation

Showing up to 5 results
|